Regional Weather Roundup
Issued by NWS Charleston, SC

Current Version | Previous Version | Graphics & Text | Print | Product List | Glossary On
Versions: 1 2 3 4 5 6 7 8 9 10 11 12 13 14 15 16 17 18 19 20 21 22 23 24 25 26 27 28 29 30 31 32 33 34 35 36 37 38 39 40 41 42 43 44 45 46 47 48 49 50
000 ASUS42 KCHS 011428 RWRCHS REGIONAL WEATHER ROUNDUP NATIONAL WEATHER SERVICE CHARLESTON SC 1000 AM EDT SAT OCT 01 2016 NOTE: "FAIR" INDICATES FEW OR NO CLOUDS BELOW 12,000 FEET WITH NO SIGNIFICANT WEATHER AND/OR OBSTRUCTIONS TO VISIBILITY. NOT ALL STATIONS ARE QUALITY CONTROLLED. USE DATA WITH CAUTION... ESPECIALLY DEWPOINT OBSERVATIONS. SCZ027-030-031-034>040-042>050-011500- ...SOUTHEAST SOUTH CAROLINA... CITY SKY/WX TMP DP RH WIND PRES REMARKS N CHARLESTON PTSUNNY 73 60 63 N5 30.08S WATERFRONT PRK N/A 75 64 68 N7 30.06R MOUNT PLEASANT FAIR 77 64 65 CALM 30.07F JOHNS ISLAND FAIR 79 63 57 N5 30.07F PINOPOLIS N/A N/A N/A N/A VRB3 30.01R MONCKS CORNER FAIR 72 57 60 CALM 30.08F SUMMERVILLE FAIR 72 64 78 CALM 30.10S BEAUFORT MCAS N/A 74 58 57 N5 30.09R BEAUFORT ARPT PTSUNNY 73 59 60 NE5 30.08S HAZE HILTON HEAD IS MOSUNNY 77 63 61 N7 30.09R WALTERBORO PTSUNNY 73 61 64 CALM 30.10S ALLENDALE FAIR 72 55 56 CALM 30.09S ...SOUTHERN MIDLANDS AND PEE DEE... CITY SKY/WX TMP DP RH WIND PRES REMARKS GEORGETOWN FAIR 72 63 73 CALM 30.09S KINGSTREE FAIR 75 54 46 E3 30.09S ORANGEBURG SUNNY 72 56 57 CALM 30.10R BARNWELL NOT AVBL AIKEN FAIR 70 46 43 CALM 30.13R MANNING FAIR 72 59 64 CALM 30.10R COLUMBIA MOSUNNY 67 56 67 SE3 30.09S SUMTER SUNNY 71 57 60 CALM 30.07S FLORENCE SUNNY 73 60 63 SE3 30.10R MYRTLE BEACH NOT AVBL N MYRTLE BEACH CLOUDY 73 65 75 CALM 30.09R $$ GAZ063-065-086>088-099>101-113>116-118-119-134>141-150-011500- ...SOUTHEAST GEORGIA... CITY SKY/WX TMP DP RH WIND PRES REMARKS SAVANNAH ARPT PTSUNNY 72 54 53 NE5 30.09R HUNTER AAF PTSUNNY 72 60 65 N5 30.07R FORT STEWART MOSUNNY 68 54 60 NE2 30.07R STATESBORO SUNNY 73 58 59 N3 30.10S SYLVANIA NOT AVBL CLAXTON FAIR 73 58 59 CALM 30.10S ...CSRA...CENTRAL AND FAR SOUTHEAST GEORGIA... CITY SKY/WX TMP DP RH WIND PRES REMARKS THOMSON SUNNY 72 53 51 CALM 30.14S AUGUSTA-BUSH SUNNY 66 55 67 CALM 30.10S AUGUSTA-DANIEL SUNNY 70 53 54 W3 30.11R SWAINSBORO FAIR 73 50 43 NE5 30.11S VIDALIA SUNNY 73 57 56 NE6 30.11R EASTMAN FAIR 73 41 31 CALM 30.13S HAZLEHURST FAIR 73 57 57 W5 30.10R ALMA SUNNY 72 55 55 VRB5 30.10R WAYCROSS SUNNY 76 58 52 E5 30.10S JESUP FAIR 75 59 57 E5 30.09F BAXLEY FAIR 73 57 56 NE3 30.09F BRUNSWICK PTSUNNY 75 61 60 N3 30.09R SAINT SIMONS PTSUNNY 77 58 51 N6 30.07R $$ SCZ027-028-034-036>038-045-046-048>050-GAZ119-141-011500- ...LAKE AND SUPPLEMENTAL COASTAL OBSERVATIONS... STATION/POSITION TIME TEMP WIND PRES WAVE SWELL AIR SEA DIR/SP/G HT/PER HT/PER/DIR (UTC) (F) (DEG/KT/KT) (MB) (FT/S) (FT/S/D) WINYAH BAY 1345 72 40/ 2 1018.0R LAKE MURRAY 1350 72 CALM / 1 1018.6R ACE BASIN NERRS 1345 71 10/ 1 1019.0S FORT PULASKI 1400 74 81 20/ 7/ 9 1018.9 SAPELO ISLAND 1400 76 10/ 9 1018.0 $$ ANZ835-935-AMZ111-154-330-350-352-354-370-450-454-472-011500- ...C-MAN AND BUOY OBSERVATIONS... STATION/POSITION TIME TEMP WIND PRES WAVE SWELL AIR SEA DIR/SP/G HT/PER HT/PER/DIR (UTC) (F) (DEG/KT/KT) (MB) (FT/S) (FT/S/D) BUOY 41004 1350 78 82 70/ 16/ 19 1016.8F 3/10 2/100/10 BUOY 41008 1350 79 82 30/ 12/ 14 1017.6R 2/ 4 2/ 80/11 FOLLY BEACH CMAN 1400 76 30/ 7/ 8 1018.6R CAPERS NEARSHORE 1408 78 81 90/ 10/ 14 1018.0R FRIPP NEARSHORE 1408 78 81 40/ 12/ 14 1018.3R STATION/POSITION TIME TEMP WIND PRES WAVE SWELL AIR SEA DIR/SP/G HT/PER HT/PER/DIR (UTC) (F) (DEG/KT/KT) (MB) (FT/S) (FT/S/D) 5E ST. MARYS GA 1401 82 N/A 3/10 FRYING PAN BUOY 1400 79 82 180/ 12/ 16 1019.0 BUOY 41025 1350 79 82 180/ 17/ 21 1017.9F 5/11 3/ 50/11 CAPE LOOKOUT NC 1400 79 200/ 9/ 12 1018.4R BUOY 41002 1350 78 83 110/ 8/ 10 1019.8R 6/11 7/ 50/11 BUOY 41010 NOT AVBL ST AUGUSTINE FL 1400 77 82 360/ 5/ 5 1018.8R $$

USA.gov is the U.S. government's official web portal to all federal, state and local government web resources and services.